Location: Ahstedt
(52.2048°N, 10.1060°E)
Time: 00:31:43
(UTC+00:00)

Cosmos 2181 Rocket - Pass Details

Date: 18 January 2026
Orbit: 952 x 1013 km, 82.9° (Epoch: 17 February)

Event Time Altitude Azimuth Distance (km) Brightness Sun altitude
Rises 04:45:35 0° 346° (NNW) 3,723 6.9 -22.8°
Reaches altitude 10° 04:48:10 10° 341° (NNW) 2,778 6.1 -22.4°
Maximum altitude 04:54:15 49° 270° (W) 1,283 4.2 -21.5°
Drops below altitude 10° 05:00:22 10° 197° (SSW) 2,787 6.3 -20.6°
Sets 05:02:59 0° 192° (SSW) 3,735 7.0 -20.2°
